Miscellaneous Local Product
Issued by NWS Hastings, NE

Home | Current Version | Previous Version | Text Only | Print | Product List | Glossary Off
Versions: 1 2 3 4 5 6 7 8 9 10 11 12 13 14 15 16 17 18 19 20 21 22 23 24 25 26 27 28 29 30 31 32 33 34 35 36 37 38 39 40 41 42 43 44 45 46 47 48 49 50

675
AXUS43 KGID 141102
MISGRI

GID CWA HOURLY WEATHER ROUNDUP
NATIONAL WEATHER SERVICE HASTINGS NE
500 AM CST SUN FEB 14 2016

NOTE: "FAIR" INDICATES FEW OR NO CLOUDS BELOW 12,000 FEET WITH NO
SIGNIFICANT WEATHER AND/OR OBSTRUCTIONS TO VISIBILITY.

...SOUTH CENTRAL NEBRASKA...

CITY           SKY/WX    TMP DP  RH WIND       PRES   REMARKS
GRAND ISLAND   CLOUDY    22  15  75 SW16      29.88F WCI   8
HASTINGS       CLEAR     19  11  70 SW9G17    29.89F WCI   8
KEARNEY        CLEAR     25  19  80 W9        29.89S WCI  15
ORD            CLOUDY    40  31  70 W18G26    29.82F WCI  31
YORK           CLOUDY    19  12  73 S13       29.90F WCI   7
AURORA         PTCLDY    19  12  73 SW13      29.89F WCI   7
LEXINGTON      CLEAR     34  28  79 NW15      29.90F WCI  24
HOLDREGE       CLEAR     22  18  85 W7        29.90F WCI  14
HEBRON         CLEAR     19  10  68 S7        29.95F WCI  10

...NEBRASKA PANHANDLE...

CITY           SKY/WX    TMP DP  RH WIND       PRES   REMARKS
CHADRON        CLEAR     31  23  72 W7        29.93F WCI  24
ALLIANCE       CLEAR     34  22  61 NW16      29.91F WCI  24
SCOTTSBLUFF    CLEAR     26  21  81 CALM      29.95F
SIDNEY         CLEAR     31  24  75 NW12      29.97F WCI  22

...WESTERN AND NORTH CENTRAL NEBRASKA...

CITY           SKY/WX    TMP DP  RH WIND       PRES   REMARKS
VALENTINE      CLEAR     32  28  85 W7        29.84S WCI  26
AINSWORTH      CLOUDY    38  33  83 W13       29.83S WCI  30
ONEILL         CLOUDY    37  35  91 W10       29.79S WCI  30
BROKEN BOW     CLEAR     37  30  75 W18       29.86S WCI  27
IMPERIAL       CLEAR     33  24  69 W9        29.97S WCI  25
NORTH PLATTE   CLEAR     30  25  81 W8        29.91S WCI  22
MCCOOK         CLEAR     32  26  78 NW17      29.94F WCI  21

...EASTERN NEBRASKA...

CITY           SKY/WX    TMP DP  RH WIND       PRES   REMARKS
NORFOLK        LGT SNOW  20  16  84 S8        29.84F FOG     WCI  10
SO SIOUX CITY  CLOUDY    19   9  65 S13       29.93F WCI   6
TEKAMAH        CLOUDY    19  12  74 S14       29.94F WCI   6
COLUMBUS       CLOUDY    21   7  53 S10       29.87F WCI  10
ALBION         CLOUDY    25  20  81 S5        29.82F WCI  19
OMAHA EPPLEY   CLOUDY    21   8  57 S21       29.96F WCI   5
OFFUTT AFB     CLOUDY    22   6  52 SE20      29.96F WCI   6
MILLARD        CLOUDY    22   8  54 S14G20    29.97F WCI   9
LINCOLN        CLOUDY    21   9  59 S15G23    29.95F WCI   8
NEBRASKA CITY  CLOUDY    22   6  49 S16       29.99S WCI   8
BEATRICE       PTCLDY    19   8  61 S8        29.98F WCI   9
FALLS CITY     CLOUDY    24   6  46 S13       30.01F WCI  12

...NORTHERN KANSAS...

CITY           SKY/WX    TMP DP  RH WIND       PRES   REMARKS
GOODLAND       CLEAR     30  24  78 N12       29.97F WCI  20
HILL CITY      CLEAR     33  27  78 W7        29.97S WCI  27
NORTON         SUNNY     36  25  64 W18       29.93S WCI  25
PHILLIPSBURG   CLEAR     19  16  86 CALM      29.96S
SMITH CENTER   CLEAR     16  12  86 CALM      29.97F
BELOIT         CLEAR     16  10  79 S5        29.99S WCI   9
HAYS           CLOUDY    19   9  63 S6        29.99F WCI  11
RUSSELL        CLOUDY    17  14  88 SW8       29.98S WCI   7
CONCORDIA      CLEAR     17   8  67 S5        29.97F WCI  10
SALINA         CLOUDY    20  10  65 CALM      30.02F
TOPEKA         MOCLDY    25   6  44 SE5       30.05S WCI  19



USA.gov is the U.S. government's official web portal to all federal, state and local government web resources and services.